Regional Weather Roundup
Issued by NWS

Home | Current Version | Previous Version | Text Only | Print | Product List | Glossary On
Versions: 1 2 3 4 5 6 7 8 9 10 11 12 13 14 15 16 17 18 19 20 21 22 23 24 25 26 27 28 29 30 31 32 33 34 35 36 37 38 39 40 41 42 43 44 45 46 47 48 49 50
000
ASUS44 KFWD 011615
RWRTX
NORTH TEXAS HOURLY WEATHER ROUNDUP
NATIONAL WEATHER SERVICE FORT WORTH TX
1100 AM CDT FRI AUG 01 2014

NOTE: "FAIR" INDICATES FEW OR NO CLOUDS BELOW 12,000 FEET WITH NO
SIGNIFICANT WEATHER AND/OR OBSTRUCTIONS TO VISIBILITY.

TXZ118-119-011700-
DALLAS/FORT WORTH METROPLEX

CITY           SKY/WX    TMP DP  RH WIND       PRES   REMARKS
DFW AIRPORT    CLOUDY    74  66  76 NE9       30.06S
DALLAS LOVE    CLOUDY    72  67  84 N9G18     30.06R
FTW MEACHAM    CLOUDY    74  66  76 N7        30.07R
DAL-EXECUTIVE  CLOUDY    72  67  84 N8        30.06R
FTW-ALLIANCE   CLOUDY    71  66  84 NE8       30.07R
FTW-NAS-JRB    CLOUDY    77  64  64 NE10      30.11R
FTW-SPINKS     CLOUDY    72  66  83 N10       30.09R
ARLINGTON      CLOUDY    73  66  78 N8        30.07R
GRAND PRAIRIE  CLOUDY    72  66  83 N7        30.08R
ADDISON        CLOUDY    72  66  83 NE9       30.07R
MESQUITE       CLOUDY    72  66  83 N8        30.06R
LANCASTER      CLOUDY    71  66  84 N7        30.06S
$$

TXZ091>094-102>105-117-120-121-131>134-011700-
NORTH CENTRAL TEXAS

CITY           SKY/WX    TMP DP  RH WIND       PRES   REMARKS
SHRMAN/DENISON CLOUDY    72  66  83 NE7       30.09S
GAINESVILLE    CLOUDY    73  65  76 N8        30.10S
BOWIE          CLOUDY    75  65  72 N7        30.11R
BRIDGEPORT     PTSUNNY   74  62  65 N8        30.11R
DECATUR        PTSUNNY   74  64  69 NE8       30.09S
DENTON         CLOUDY    73  66  78 NE8       30.08R
MCKINNEY       CLOUDY    71  67  87 NE9       30.07R
GREENVILLE     CLOUDY    70  66  88 N5        30.06R
ROCKWALL       CLOUDY    71  68  92 NE6       30.06R
TERRELL        CLOUDY    74  69  85 NE9       30.06R
WAXAHACHIE     CLOUDY    70  67  91 N7        30.08R
CLEBURNE       CLOUDY    72  70  94 N10       30.09R
GRANBURY       CLOUDY    77  64  65 N6        30.09S
$$

TXZ083>090-098>101-113>116-127>130-139>142-154-155-011700-
WESTERN NORTH TEXAS

CITY           SKY/WX    TMP DP  RH WIND       PRES   REMARKS
WICHITA FALLS  PTSUNNY   76  66  71 N6        30.10S
WF-KICKAPOO    PTSUNNY   75  65  70 N9        30.12S
VERNON         PTSUNNY   77  65  66 NE3       30.13S
ABILENE        PTSUNNY   78  64  61 N8        30.14S
ABILENE-DYESS  PTSUNNY   74  64  71 E8        30.14R
BRECKENRIDGE   CLOUDY    79  62  55 N9        30.11R HAZE
GRAHAM         CLOUDY    76  63  63 NE6       30.10R
MINERAL WELLS  PTSUNNY   76  64  66 NE6       30.09R
STEPHENVILLE   PTSUNNY   73  63  70 NE7       30.12S
COMANCHE       CLOUDY    76  62  61 N6        30.11R
BROWNWOOD      PTSUNNY   75  63  64 N8        30.12R
COLEMAN        CLOUDY    75  62  64 N3        30.13R
$$

TXZ143>147-156>162-174-175-011700-
CENTRAL TEXAS

CITY           SKY/WX    TMP DP  RH WIND       PRES   REMARKS
WACO           CLOUDY    75  66  73 N12       30.05R
WACO-TSTC      CLOUDY    75  68  78 N8        30.05R
WACO-MCGREGOR  PTSUNNY   77  64  65 N8        30.07S
HILLSBORO      CLOUDY    73  66  78 N10       30.06R
CORSICANA      CLOUDY    72  67  84 N7        30.06R HAZE
MEXIA          CLOUDY    74  68  82 NW8       30.04R
HEARNE         PTSUNNY   79  67  68 NW9       30.03R
CAMERON        PTSUNNY   80  68  67 N10       30.03S
TEMPLE         CLOUDY    79  63  57 N10       30.04R
KILLEEN        PTSUNNY   75  64  69 N9        30.06S
KILLEEN-SKYLRK CLOUDY    75  63  64 N8        30.06S
FORT HOOD      CLOUDY    79  64  60 N10       30.06S
GATESVILLE     PTSUNNY   73  64  73 N8        30.09S
HAMILTON       CLOUDY    76  64  68 N9G16     30.10R
LAMPASAS       CLOUDY    76  65  70 N8        30.07S
$$

TXZ095>097-106>112-122>126-135>138-148>153-164>167-011700-
EAST TEXAS

CITY           SKY/WX    TMP DP  RH WIND       PRES   REMARKS
PARIS          CLOUDY    70  63  78 NE9       30.08R
SULPHUR SPRNGS CLOUDY    69  68  96 NE6       30.08R FOG
CLARKSVILLE    CLOUDY    70  68  93 NE3       30.06R
MOUNT PLEASANT CLOUDY    69  67  94 NE5       30.06R
GILMER         CLOUDY    70  70 100 NE6       30.05S
MINEOLA        CLOUDY    70  68  94 NE3       30.05S FOG
TYLER          CLOUDY    71  66  84 N9        30.03R
LONGVIEW       CLOUDY    69  66  90 VRB5      30.01R
MARSHALL       CLOUDY    71  69  92 NE3       30.03S
ATHENS         CLOUDY    70  64  83 N10       30.03R
JACKSONVILLE   CLOUDY    69  67  96 N6        30.04S
HENDERSON      CLOUDY    68  68  99 N3        30.03R FOG
NACOGDOCHES    CLOUDY    72  70  94 NW6       30.00S
LUFKIN         CLOUDY    76  71  85 NW7       30.00R
$$

SUPPLEMENTAL OBSERVATIONS (CENTRAL)

CITY           SKY/WX    TMP DP  RH WIND       PRES   REMARKS
LAKE TEXOMA      N/A     70  68  94 NE6         N/A
CADDO GRASSLND   N/A     70  66  88 NE3         N/A
PAT MAYSE LAKE   N/A     68  64  88 N7          N/A
GREENVILLE       N/A     70  64  83 NE7         N/A
CEDAR HILL       N/A     72  68  88 NE7         N/A
PALESTINE        N/A     72  68  88 N6          N/A
LAKE LIMESTONE   N/A     75  73  94 NW7         N/A
MCGREGOR         N/A     79  66  65 N6          N/A
TEMPLE           N/A     81  66  61 N2G13       N/A
$$

SUPPLEMENTAL OBSERVATIONS (WEST)

CITY           SKY/WX    TMP DP  RH WIND       PRES   REMARKS
MILLERS CREEK    N/A     77  70  78 N7          N/A
POSSUM KINGDOM   N/A     79  63  57 NE8         N/A
LBJ GRASSLAND    N/A     79  64  61 N7G15       N/A
GRANBURY         N/A     77  64  65 N8          N/A
COMANCHE         N/A     75  63  64 N9          N/A
HAMBY            N/A     75  64  69 N5          N/A
IVIE RESERVOIR   N/A     81  64  57 N5          N/A
COLORADO BEND    N/A     75  61  60 N6          N/A
$$

SUPPLEMENTAL OBSERVATIONS (EAST)

CITY           SKY/WX    TMP DP  RH WIND       PRES   REMARKS
TEXARKANA        N/A     70  66  88 NE5         N/A
LINDEN           N/A     68  64  88 NE2         N/A
CADDO LAKE       N/A     68  66  94 N1          N/A
HENDERSON        N/A     70  66  88 CALM        N/A
LUFKIN           N/A     72  70  94 MISG        N/A
N SABINE NF      N/A     73  70  88 MISG        N/A
$$

SUPPLEMENTAL OBSERVATIONS ARE A COLLECTION OF AUTOMATED INSTRUMENTS
THAT ARE MAINTAINED BY A VARIETY OF FEDERAL AND STATE AGENCIES.
CERTAIN ELEMENTS...SUCH AS HUMIDITY VALUES AND SUSTAINED WIND
SPEEDS...MAY BE APPROXIMATED.




USA.gov is the U.S. government's official web portal to all federal, state and local government web resources and services.